Location: Del Amo
(33.8464°N, 118.2104°W)
Time: 07:55:21
(UTC+00:00)

Vanguard 3 - Pass Details

Date: 14 September 2024
Orbit: 507 x 3223 km, 33.3° (Epoch: 09 October)

Event Time Altitude Azimuth Distance (km) Brightness Sun altitude
Rises 15:29:22 0° 250° (WSW) 6,891 11.4 22.6°
Reaches altitude 10° 15:33:44 10° 249° (WSW) 6,026 11.2 23.5°
Maximum altitude 15:53:42 81° 166° (SSE) 3,084 10.6 27.5°
Drops below altitude 10° 16:09:27 10° 82° (E) 4,925 12.3 30.6°
Sets 16:12:37 0° 81° (E) 5,636 12.3 31.2°
